THORAD DELTA 1 DEB, 42619

Orbit data source: Space-Track

THORAD DELTA 1 DEB, 42619 is space debris in SSO originally from a launch on Fri, 15 Nov 1974 UTC launched from the Air Force Western Test Range (AFWTR). Debris objects in space refer to the collection of defunct objects orbiting the Earth. Examples of debris include non-operational satellites, rocket bodies, and fragments generated from explosions, collisions, or faulty payload assembly.

Loading next visibility...
Identifier
42619, 1974-089GL
Orbit
SSO
Country
Flag of USUS
Related business
Manufacturer
Unknown
Mission
Spacecraft
Bus & Motor
Unknown
Mass
Unknown
Launch date (UTC)
1974-11-15 (51 years ago)
Launch vehicle
Unknown
Launch site
Air Force Western Test Range (AFWTR)
Object type
Payload
Rocket body
Debris
Shape & HBR
Unknown shape, 0.1 m
Radar Cross Section
Small (<0.1 m²)

Expand to show TLE details & history
Last TLE update: 20 hours ago

TLE from 20 hours ago
0 THORAD DELTA 1 DEB
1 42619U 74089GL  25287.63616741  .00001814  00000-0  29458-2 0  9992
2 42619 102.0433 233.8264 0176787 234.2568 300.4121 13.44040713581104
Epoch: 2025-10-14T15:16Z
TLE epoch observation values (Epoch: 2025-10-14T15:16:04.864Z)
Latitude
6.87146°
Longitude
162.84999°
Altitude
1,031.203 km
Speed
7.369 km/s
True Right ascension
03h 41m 10s
True Declination
6° 49' 56"
Sunlit
Object was in full shadow at epoch
Visualization orbit readout
Latitude
Unknown
Longitude
Unknown
Altitude
Unknown
Speed
Unknown
Apparent Right ascension
Unknown
Apparent Declination
Unknown
Sunlit
N/A
Visualization observer readout
Local Sidereal Time
05:46:47
Azimuth
Unknown
Elevation
Unknown
Doppler factor
Unknown
Orbital elements
Apogee altitude
1,223.764 km
Perigee altitude
959.65 km
Semi-major axis
7,469.844 km
Eccentricity
0.01768
Inclination
102.0433°
RAAN
233.8264°
Arg. of periapsis
234.2568°
True anomaly
298.64554°
Mean anomaly
300.4121°
Eccentric anomaly
299.53077°
Mean motion
3.36183 °/min
Orbital period
107.08 mins
BSTAR
0.0029458
Loading maneuver chart data...
Computing Atmospheric mass density...
Loading historical data...
Loading historical data...
Loading historical data...
Loading historical data...
Loading historical data...
Loading historical data...
Loading historical data...

Documentation

Showing up to 5 results
|